RH
74 73 72 71 71 71 70 69 70 71 71 73 74 76 76 76 76 77 78 77 75 74 70 67 68 63 58 54 51 50 47 45 44 43 45 44 41 38 35 31 29 29 28 27 25 24 22 21 22 21 25 35
76 73 73 72 73 73 72 71 71 71 71 72 73 74 74 74 74 75 75 73 72 70 67 63 64 63 58 55 52 49 46 45 43 41 41 38 35 33 31 29 28 28 27 27 25 24 23 22 22 21 24 33
75 74 74 75 75 74 74 73 72 73 74 73 73 73 72 72 72 73 73 72 71 69 66 61 59 59 56 53 50 47 45 44 42 40 38 35 33 32 31 30 27 26 25 26 26 24 24 23 23 22 24 28
70 72 74 76 76 76 76 75 74 74 75 75 74 73 72 72 72 72 73 72 70 68 64 59 56 54 52 50 47 45 44 43 41 39 37 34 33 32 31 30 28 26 24 25 26 25 25 24 23 22 23 24
67 69 73 75 76 76 76 75 75 74 74 76 75 73 72 72 71 72 72 71 70 67 62 58 54 52 51 50 46 44 43 42 41 38 36 34 33 32 30 30 28 26 26 25 26 26 25 24 24 22 23 22
69 70 72 74 75 75 75 75 74 73 73 74 74 73 73 72 72 71 70 70 68 66 63 58 54 53 53 52 48 45 44 42 40 38 36 34 33 32 31 30 29 28 27 27 26 26 26 25 24 23 23 22
69 71 72 73 74 75 75 75 74 73 72 71 72 72 72 71 70 68 67 68 67 66 63 58 56 55 53 52 49 45 45 42 39 37 35 34 33 32 32 31 30 29 28 28 27 27 27 26 25 24 23 22
62 65 67 68 70 72 73 74 74 73 72 71 71 70 70 69 67 67 67 66 64 62 61 58 57 55 52 51 49 46 45 41 38 37 35 34 33 33 33 32 31 31 30 29 28 27 26 25 24 23 22 22
54 56 58 61 63 66 69 71 72 73 72 72 71 70 69 68 65 64 63 61 60 59 59 58 57 53 50 49 48 46 44 40 38 37 36 35 35 34 33 34 33 33 32 30 29 27 25 24 23 22 21 21
51 52 53 55 57 60 64 67 70 72 73 72 71 70 69 67 63 59 58 57 59 61 58 55 53 50 47 47 47 45 42 38 36 36 36 36 36 35 35 35 35 34 34 32 30 28 25 24 23 22 21 20
52 52 52 54 55 57 60 63 66 68 70 71 72 71 70 68 64 60 58 56 57 58 53 48 46 45 45 45 45 44 41 38 36 37 37 38 38 37 37 36 36 35 35 33 31 29 27 25 23 21 20 19
55 54 53 54 54 56 57 59 62 64 66 69 70 72 71 70 68 65 61 58 56 53 50 46 43 44 45 45 44 43 42 40 39 39 40 41 40 39 39 37 36 35 34 33 31 29 28 25 23 21 19 18
57 56 55 55 55 55 57 58 61 62 65 67 69 71 71 71 71 69 65 60 57 54 51 49 47 48 48 48 46 46 45 44 42 42 42 42 42 40 39 37 35 34 32 32 31 29 28 27 25 22 20 18
58 57 57 57 58 58 58 59 60 62 64 66 69 70 70 69 69 69 65 59 58 56 53 52 52 51 52 51 50 49 48 46 45 44 43 42 41 39 37 36 34 33 32 31 31 30 29 28 27 25 23 21
60 59 59 60 61 62 62 62 62 63 64 66 68 69 70 69 68 69 64 56 54 55 55 55 54 53 53 53 52 51 49 46 44 42 42 40 39 38 37 36 35 34 33 32 31 31 30 29 28 27 26 23
62 62 62 63 64 64 64 63 63 62 63 63 65 66 67 68 68 67 61 52 51 53 55 56 55 54 53 53 52 50 47 45 43 42 41 40 39 38 37 36 35 34 33 32 32 31 30 30 30 29 27 25
64 64 65 66 66 66 64 63 62 61 60 60 61 61 62 63 62 61 57 53 53 53 53 54 54 53 52 51 50 48 47 45 44 42 41 40 39 37 37 36 35 34 33 32 32 32 31 31 31 30 29 28
67 68 68 68 67 66 65 63 61 60 59 58 57 57 57 57 56 56 56 56 58 58 57 54 53 52 51 51 50 49 48 46 45 43 41 40 38 37 37 36 35 35 33 33 33 32 32 31 31 31 31 30
70 70 70 69 68 67 65 63 61 59 58 57 57 57 57 56 55 55 55 54 55 57 57 53 49 49 49 49 50 50 50 48 46 44 42 41 39 38 37 37 36 35 34 34 33 33 33 33 32 32 32 31
71 72 71 69 67 66 64 62 60 59 57 57 58 58 57 57 56 54 52 51 50 51 52 49 46 45 45 47 48 49 50 50 48 46 44 42 41 40 38 38 37 36 36 35 35 34 34 34 34 34 33 33
72 72 70 69 67 65 64 63 62 60 59 59 59 58 57 56 53 50 48 46 45 46 46 45 44 43 43 45 47 49 50 51 50 49 48 46 44 43 42 41 40 39 38 37 37 37 36 36 36 35 35 34
72 72 71 69 66 65 64 63 63 62 61 60 60 59 58 56 52 48 45 42 41 41 41 41 41 43 44 46 48 50 51 51 51 50 50 51 49 47 46 45 43 43 42 40 38 38 37 37 36 35 35 35
71 72 71 68 64 63 63 62 62 61 61 60 59 57 56 53 49 45 42 40 39 39 39 39 40 43 47 50 51 52 52 53 54 52 52 54 53 51 49 48 47 45 44 42 40 39 38 37 36 35 35 35
71 72 71 69 65 63 62 62 62 62 61 60 58 54 51 48 45 42 39 37 37 38 38 39 40 43 47 52 54 55 56 56 57 57 57 58 57 55 52 50 48 47 45 43 41 39 38 38 37 36 35 35
70 73 73 72 69 66 63 62 61 60 58 56 54 52 49 46 44 41 38 36 35 35 36 38 40 43 46 51 56 58 58 58 59 59 60 59 58 57 55 52 49 47 46 44 44 43 41 40 38 36 36 36
70 72 73 71 69 65 61 58 55 53 52 51 51 51 51 49 46 43 40 37 36 35 35 36 38 40 43 48 53 56 56 57 58 58 57 56 55 54 53 51 49 47 46 46 47 45 43 41 40 39 39 39
68 68 67 66 63 59 55 52 51 50 50 50 51 52 53 52 50 46 43 41 38 36 36 36 36 38 40 43 47 50 51 52 52 52 52 52 52 51 51 51 49 48 48 48 49 48 46 46 46 46 45 43
63 63 62 61 59 56 52 49 49 49 49 50 51 51 51 51 49 47 45 43 41 39 38 38 37 37 38 40 42 45 47 48 49 49 50 51 51 50 51 51 51 50 50 50 51 51 51 51 50 48 47 46
63 62 60 59 57 55 53 50 49 48 48 49 49 49 48 47 46 45 44 43 41 41 40 39 38 37 37 37 39 40 43 45 47 48 49 51 51 51 51 52 52 52 52 52 52 52 53 53 52 51 49 48
65 62 59 57 56 56 55 54 52 51 50 49 47 46 46 46 46 46 45 44 43 42 41 40 39 37 37 36 37 38 39 40 42 43 45 47 49 50 51 52 52 53 53 53 53 53 54 54 54 52 50 50
70 67 63 60 59 59 58 57 56 54 52 49 48 47 48 48 48 47 45 44 43 42 41 40 39 38 38 38 38 39 39 40 41 42 44 45 46 48 49 50 51 53 53 54 55 54 54 54 53 52 51 51